Location: Unspecified
(0.0000°N, 0.0000°E)
Time: 17:21:38
(UTC+00:00)

STARLINK 1067 - Pass Details

Date: 18 January 2020
Orbit: 549 x 550 km, 53.0° (Epoch: 22 January)

Event Time Altitude Azimuth Distance (km) Brightness Sun altitude
Rises 19:14:22 0° 291° (WNW) 2,706 7.9 -15.0°
Reaches altitude 10° 19:17:45 10° 261° (W) 1,818 7.5 -15.7°
Maximum altitude 19:19:35 13° 235° (SW) 1,655 7.2 -16.2°
Drops below altitude 10° 19:21:25 10° 208° (SSW) 1,822 7.0 -16.6°
Sets 19:24:50 0° 179° (S) 2,719 7.4 -17.4°
